timestamp,surface_pressure_avg,surface_temp_avg,battery_voltage,lat,long
2019-11-22 00:09:01+00:00,233.5531,6.47,12.57,47.84626,-54.09684
2019-11-22 00:19:01+00:00,226.0081,6.6,12.57,47.84626,-54.09684
2019-11-22 00:29:01+00:00,223.9447,6.48,12.57,47.84626,-54.09684
2019-11-22 00:39:01+00:00,225.6681,6.36,12.57,47.84626,-54.09684
2019-11-22 00:49:01+00:00,221.6648,6.2,12.57,47.84626,-54.09684
2019-11-22 00:59:01+00:00,216.2248,6.19,12.57,47.84626,-54.09684
2019-11-22 01:09:01+00:00,216.1648,6.2,12.57,47.84626,-54.09684
2019-11-22 01:19:01+00:00,215.0531,6.1,12.49,47.84626,-54.09684
2019-11-22 01:29:01+00:00,209.4298,6.09,12.49,47.84626,-54.09684
2019-11-22 01:39:01+00:00,211.3681,6.1,12.49,47.84626,-54.09684
2019-11-22 01:49:01+00:00,216.3864,6.0,12.49,47.84626,-54.09684
2019-11-22 01:59:01+00:00,213.7614,6.03,12.49,47.84626,-54.09684
2019-11-22 02:09:01+00:00,211.2448,6.19,12.49,47.84626,-54.09684
2019-11-22 02:19:01+00:00,215.3997,6.26,12.49,47.84626,-54.09684
2019-11-22 02:29:01+00:00,218.0414,6.3,12.49,47.84626,-54.09684
2019-11-22 02:39:01+00:00,215.6298,6.53,12.49,47.84626,-54.09684
2019-11-22 02:49:01+00:00,216.4981,6.57,12.49,47.84626,-54.09684
2019-11-22 02:59:01+00:00,225.4964,6.57,12.49,47.84626,-54.09684
2019-11-22 03:09:01+00:00,225.8464,6.59,12.49,47.84626,-54.09684
2019-11-22 03:19:01+00:00,221.0714,6.5,12.49,47.84626,-54.09684
2019-11-22 03:29:01+00:00,227.8115,6.49,12.49,47.84626,-54.09684
2019-11-22 03:39:01+00:00,242.1081,6.4,12.49,47.84626,-54.09684
2019-11-22 03:49:01+00:00,241.1114,6.2,12.49,47.84626,-54.09684
2019-11-22 03:59:01+00:00,239.3681,6.26,12.49,47.84626,-54.09684
2019-11-22 04:09:01+00:00,250.6414,6.3,12.49,47.84626,-54.09684
2019-11-22 04:19:01+00:00,262.3181,6.2,12.49,47.84626,-54.09684
2019-11-22 04:29:01+00:00,261.1281,6.13,12.49,47.84626,-54.09684
2019-11-22 04:39:01+00:00,263.0514,6.2,12.49,47.84626,-54.09684
2019-11-22 04:49:01+00:00,272.8498,6.2,12.49,47.84626,-54.09684
2019-11-22 04:59:01+00:00,279.8763,6.17,12.49,47.84626,-54.09684
2019-11-22 05:09:01+00:00,283.3797,6.14,12.49,47.84626,-54.09684
2019-11-22 05:19:01+00:00,292.6047,6.51,12.49,47.84626,-54.09684
2019-11-22 05:29:01+00:00,295.348,6.65,12.49,47.84626,-54.09684
2019-11-22 05:39:01+00:00,297.188,6.69,12.49,47.84626,-54.09684
2019-11-22 05:49:01+00:00,304.283,6.67,12.49,47.84626,-54.09684
2019-11-22 05:59:01+00:00,314.8746,6.4,12.49,47.84626,-54.09684
2019-11-22 06:09:01+00:00,310.898,7.0,12.49,47.84626,-54.09684
2019-11-22 06:19:01+00:00,315.46299999999997,7.0,12.49,47.84626,-54.09684
2019-11-22 06:29:01+00:00,327.1097,6.95,12.49,47.84626,-54.09684
2019-11-22 06:39:01+00:00,330.4463,6.6,12.49,47.84626,-54.09684
2019-11-22 06:49:01+00:00,322.848,7.08,12.49,47.84626,-54.09684
2019-11-22 06:59:01+00:00,325.788,7.1,12.49,47.84626,-54.09684
2019-11-22 07:09:01+00:00,333.783,7.0,12.49,47.84626,-54.09684
2019-11-22 07:19:01+00:00,333.4247,6.78,12.49,47.84626,-54.09684
2019-11-22 07:29:01+00:00,330.9713,6.63,12.49,47.84626,-54.09684
2019-11-22 07:39:01+00:00,342.24300000000005,6.59,12.49,47.84626,-54.09684
2019-11-22 07:49:01+00:00,346.9979,6.5,12.49,47.84626,-54.09684
2019-11-22 07:59:01+00:00,339.2213,6.4,12.49,47.84626,-54.09684
2019-11-22 08:09:01+00:00,336.0279,6.54,12.49,47.84626,-54.09684
2019-11-22 08:19:01+00:00,339.4012,6.58,12.49,47.84626,-54.09684
2019-11-22 08:29:01+00:00,342.1896,6.4,12.49,47.84626,-54.09684
2019-11-22 08:39:01+00:00,333.3130000000001,6.45,12.49,47.84626,-54.09684
2019-11-22 08:49:01+00:00,326.1847,6.82,12.49,47.84626,-54.09684
2019-11-22 08:59:01+00:00,327.0247,7.1,12.49,47.84626,-54.09684
2019-11-22 09:09:01+00:00,327.3079,6.9,12.49,47.84626,-54.09684
2019-11-22 09:19:01+00:00,320.6163,7.05,12.49,47.84626,-54.09684
2019-11-22 09:29:01+00:00,316.1763,7.1,12.49,47.84626,-54.09684
2019-11-22 09:39:01+00:00,315.9463,7.13,12.49,47.84626,-54.09684
2019-11-22 09:49:01+00:00,302.9313,7.09,12.49,47.84626,-54.09684
2019-11-22 09:59:01+00:00,287.0981,7.07,12.49,47.84626,-54.09684
2019-11-22 10:09:01+00:00,287.633,7.1,12.49,47.84626,-54.09684
2019-11-22 10:19:01+00:00,284.9614,7.06,12.49,47.84626,-54.09684
2019-11-22 10:29:01+00:00,271.0464,6.7,12.49,47.84626,-54.09684
2019-11-22 10:39:01+00:00,265.5831,6.7,12.49,47.84626,-54.09684
2019-11-22 10:49:01+00:00,269.2664,6.69,12.49,47.84626,-54.09684
2019-11-22 10:59:01+00:00,262.0814,6.69,12.49,47.84626,-54.09684
2019-11-22 11:09:01+00:00,250.3448,6.7,12.49,47.84626,-54.09684
2019-11-22 11:19:01+00:00,247.0497,6.7,12.49,47.84626,-54.09684
2019-11-22 11:29:01+00:00,248.4198,6.7,12.49,47.84626,-54.09684
2019-11-22 11:39:01+00:00,239.8198,6.7,12.49,47.84626,-54.09684
2019-11-22 11:49:01+00:00,233.2281,6.71,12.49,47.84626,-54.09684
2019-11-22 11:59:01+00:00,233.2864,6.9,12.49,47.84626,-54.09684
2019-11-22 12:09:01+00:00,227.4931,6.9,12.49,47.84626,-54.09684
2019-11-22 12:19:01+00:00,220.8281,6.8,12.57,47.84626,-54.09684
2019-11-22 12:29:01+00:00,222.6348,6.7,12.57,47.84626,-54.09684
2019-11-22 12:39:01+00:00,223.9097,6.7,12.57,47.84626,-54.09684
2019-11-22 12:49:01+00:00,217.9898,6.7,12.57,47.84626,-54.09684
2019-11-22 12:59:01+00:00,213.0381,6.7,12.57,47.84626,-54.09684
2019-11-22 13:09:01+00:00,212.7097,6.7,12.57,47.84626,-54.09684
2019-11-22 13:19:01+00:00,211.1831,6.7,12.81,47.84626,-54.09684
2019-11-22 13:29:01+00:00,209.8565,6.7,12.81,47.84626,-54.09684
2019-11-22 13:39:01+00:00,213.4698,6.68,12.81,47.84626,-54.09684
2019-11-22 13:49:01+00:00,214.8348,6.65,12.81,47.84626,-54.09684
2019-11-22 13:59:01+00:00,212.7914,6.64,12.81,47.84626,-54.09684
2019-11-22 14:09:01+00:00,214.9915,6.63,12.81,47.84626,-54.09684
2019-11-22 14:19:01+00:00,220.3931,6.62,13.21,47.84626,-54.09684
2019-11-22 14:29:01+00:00,221.5198,6.6,13.21,47.84626,-54.09684
2019-11-22 14:39:01+00:00,222.2148,6.6,13.21,47.84626,-54.09684
2019-11-22 14:49:01+00:00,222.4981,6.6,13.21,47.84626,-54.09684
2019-11-22 14:59:01+00:00,223.3398,6.6,13.21,47.84626,-54.09684
2019-11-22 15:09:01+00:00,224.8914,6.6,13.21,47.84626,-54.09684
2019-11-22 15:19:01+00:00,228.2848,6.6,13.21,47.84626,-54.09684
2019-11-22 15:29:01+00:00,232.9481,6.6,13.21,47.84626,-54.09684
2019-11-22 15:39:01+00:00,236.2064,6.6,13.21,47.84626,-54.09684
2019-11-22 15:49:01+00:00,238.1648,6.6,13.21,47.84626,-54.09684
2019-11-22 15:59:01+00:00,240.9065,6.6,13.21,47.84626,-54.09684
2019-11-22 16:09:01+00:00,246.1231,6.6,13.21,47.84626,-54.09684
2019-11-22 16:19:01+00:00,251.0497,6.6,13.37,47.84626,-54.09684
2019-11-22 16:29:01+00:00,251.9181,6.6,13.37,47.84626,-54.09684
2019-11-22 16:39:01+00:00,255.8015,6.6,13.37,47.84626,-54.09684
2019-11-22 16:49:01+00:00,262.6697,6.6,13.37,47.84626,-54.09684
2019-11-22 16:59:01+00:00,268.1231,6.6,13.37,47.84626,-54.09684
2019-11-22 17:09:01+00:00,272.0698,6.6,13.37,47.84626,-54.09684
2019-11-22 17:19:01+00:00,283.3564,6.48,13.13,47.84626,-54.09684
2019-11-22 17:29:01+00:00,290.4014,5.8,13.13,47.84626,-54.09684
2019-11-22 17:39:01+00:00,291.7463,5.7,13.13,47.84626,-54.09684
2019-11-22 17:49:01+00:00,298.5764,5.7,13.13,47.84626,-54.09684
2019-11-22 17:59:01+00:00,309.9464,5.67,13.13,47.84626,-54.09684
2019-11-22 18:09:01+00:00,309.6447,5.79,13.13,47.84626,-54.09684
2019-11-22 18:19:01+00:00,310.7047,5.69,13.29,47.84626,-54.09684
2019-11-22 18:29:01+00:00,326.7747,5.46,13.29,47.84626,-54.09684
2019-11-22 18:39:01+00:00,337.8146,5.92,13.29,47.84626,-54.09684
2019-11-22 18:49:01+00:00,334.473,6.2,13.29,47.84626,-54.09684
2019-11-22 18:59:01+00:00,338.7630000000001,6.0,13.29,47.84626,-54.09684
2019-11-22 19:09:01+00:00,352.0479,5.68,13.29,47.84626,-54.09684
2019-11-22 19:19:01+00:00,350.9046,5.3,13.13,47.84626,-54.09684
2019-11-22 19:29:01+00:00,348.4246,5.2,13.13,47.84626,-54.09684
2019-11-22 19:39:01+00:00,358.9446,4.99,13.13,47.84626,-54.09684
2019-11-22 19:49:01+00:00,364.6463,4.89,13.13,47.84626,-54.09684
2019-11-22 19:59:01+00:00,357.7979,5.0,13.13,47.84626,-54.09684
2019-11-22 20:09:01+00:00,360.6595,4.95,13.13,47.84626,-54.09684
2019-11-22 20:19:01+00:00,373.0329,5.08,12.97,47.84626,-54.09684
2019-11-22 20:29:01+00:00,375.3996,5.47,12.97,47.84626,-54.09684
2019-11-22 20:39:01+00:00,374.9996,4.82,12.97,47.84626,-54.09684
2019-11-22 20:49:01+00:00,379.2679,4.7,12.97,47.84626,-54.09684
2019-11-22 20:59:01+00:00,376.7614,4.67,12.97,47.84626,-54.09684
2019-11-22 21:09:01+00:00,371.6628,4.7,12.97,47.84626,-54.09684
2019-11-22 21:19:01+00:00,372.533,4.7,12.89,47.84626,-54.09684
2019-11-22 21:29:01+00:00,372.418,4.89,12.89,47.84626,-54.09684
2019-11-22 21:39:01+00:00,364.2746,4.9,12.89,47.84626,-54.09684
2019-11-22 21:49:01+00:00,358.5846,3.92,12.89,47.84626,-54.09684
2019-11-22 21:59:01+00:00,354.3879,4.58,12.89,47.84626,-54.09684
2019-11-22 22:09:01+00:00,347.8713,4.44,12.89,47.84626,-54.09684
2019-11-22 22:19:01+00:00,343.0446,3.8,12.89,47.84626,-54.09684
2019-11-22 22:29:01+00:00,339.2030000000001,3.7,12.89,47.84626,-54.09684
2019-11-22 22:39:01+00:00,330.8997,3.6,12.89,47.84626,-54.09684
2019-11-22 22:49:01+00:00,323.6246,3.59,12.89,47.84626,-54.09684
2019-11-22 22:59:01+00:00,319.6197,3.7,12.89,47.84626,-54.09684
2019-11-22 23:09:01+00:00,312.2963,3.71,12.89,47.84626,-54.09684
2019-11-22 23:19:01+00:00,300.6814,4.25,12.81,47.84626,-54.09684
2019-11-22 23:29:01+00:00,294.0597,4.2,12.81,47.84626,-54.09684
2019-11-22 23:39:01+00:00,285.1847,4.19,12.81,47.84626,-54.09684
2019-11-22 23:49:01+00:00,273.3714,4.28,12.81,47.84626,-54.09684
2019-11-22 23:59:01+00:00,269.0847,4.5,12.81,47.84626,-54.09684
